[[{"header":{"parameterUnit":"m.s-1","parameterCategory":1,"la1":30.2991,"la2":30.254,"lo1":-89.0895,"lo2":-89.0444,"dy":0.0017,"dx":0.0017,"nx":28,"ny":28,"refTime":"2025-01-02T09:00:00:Z","depth":0,"parameterNumber":2,"parameterNumberName":"U-component_of_WINDS"},"data":[0,0,0,0,0,0,0,0,0,0,0,0,0,0,0,0,0,0,0,0,0,0,0,0,0,0,0,0,0,0,0,0,0,0,0,0,0,0,0,0,0,0,0,0,0,0,0,0,0,0,0,0,0,0,0,0,0,0,-3.1487,-3.1487,0,-3.1521,-3.1521,-3.1522,-3.1405,-3.1402,-3.1398,-3.1395,-3.1432,-3.1437,-3.1441,0,0,0,0,0,0,0,0,0,0,0,0,0,-3.1323,-3.1327,-3.1487,-3.1487,-3.1488,-3.1521,-3.1521,-3.1522,-3.1406,-3.1402,-3.1397,-3.1393,-3.1431,-3.1436,-3.1441,0,0,0,0,0,0,0,0,0,0,0,0,0,-3.138,-3.1328,-3.1487,-3.1434,-3.1429,-3.1521,-3.1521,-3.1522,-3.1407,-3.1401,-3.1396,-3.1391,-3.1429,-3.1436,-3.1442,-3.1587,0,0,-3.1461,-3.1464,0,0,0,0,0,0,0,0,-3.1376,-3.1386,-3.1441,-3.1438,-3.1433,-3.1453,-3.1477,-3.1544,-3.1408,-3.1416,-3.1395,-3.1389,-3.1444,-3.1449,-3.1467,-3.1588,-3.159,-3.1462,-3.1466,-3.1469,-3.147,0,0,0,0,0,0,0,-3.1373,-3.1384,-3.15,-3.1442,-3.1437,-3.1409,-3.1411,-3.1489,-3.1459,-3.1414,-3.1406,-3.1412,-3.144,-3.1461,-3.1467,-3.1591,-3.1462,-3.1467,-3.1471,-3.1474,-3.1831,-3.1837,0,0,0,0,0,0,-3.1375,-3.1381,-3.1499,-3.1501,-3.1391,-3.1416,-3.1418,-3.1452,-3.1458,-3.1453,-3.1416,-3.1406,-3.1452,-3.1459,-3.1468,-3.1636,-3.1469,-3.1475,-3.1478,-3.1826,-3.1832,-3.1839,0,0,0,0,0,0,-3.1372,-3.1387,-3.1498,-3.1439,-3.1451,-3.1424,-3.1463,-3.1456,-3.1476,-3.1459,-3.1453,-3.1442,-3.1449,-3.1459,-3.1557,-3.1636,-3.1477,-3.1483,-3.1819,-3.1828,-3.1836,-3.1976,0,0,0,0,0,0,-3.1368,-3.1387,-3.1441,-3.1441,-3.1454,-3.1587,-3.1468,-3.146,-3.1487,-3.1474,-3.1482,-3.1478,-3.1445,-3.1548,-3.1564,-3.1642,-3.1488,-3.1812,-3.1823,-3.1833,-3.1964,-3.1988,-3.2009,0,0,0,0,0,-3.1363,-3.148,-3.1445,-3.146,-3.1522,-3.1592,-3.16,-3.1559,-3.1494,-3.1548,-3.1537,-3.1478,-3.1625,-3.156,-3.1576,-3.1657,-3.1807,-3.182,-3.1832,-3.1954,-3.1984,-3.2008,0,0,0,0,0,0,-3.1492,-3.1479,-3.144,-3.156,-3.1578,-3.1572,-3.164,-3.1591,-3.1628,-3.1615,-3.1563,-3.1566,-3.1674,-3.1675,-3.1603,-3.1797,-3.1705,-3.1721,-3.1792,-3.182,-3.1842,-3.1839,-3.1494,0,0,0,0,0,-3.1534,-3.1591,-3.1578,-3.1686,-3.1696,-3.1667,-3.1696,-3.1663,-3.1679,-3.1686,-3.1682,-3.1701,-3.1751,-3.1786,-3.1831,-3.1964,-3.1964,-3.2028,-3.205,-3.2068,-3.2083,-3.2153,-3.2181,-3.188,-3.188,-3.188,0,0,-3.1623,-3.1623,-3.1662,-3.1712,-3.1721,-3.1782,-3.1674,-3.1743,-3.1788,-3.1697,-3.1789,-3.1787,-3.1805,-3.1921,-3.1972,-3.1926,-3.2166,-3.2085,-3.21,-3.2104,-3.2169,-3.2197,-3.2223,-3.1889,-3.1887,-3.1886,0,0,-3.1814,-3.1821,-3.191,-3.1922,-3.1937,-3.1917,-3.1939,-3.194,-3.1935,-3.2027,-3.1959,-3.2012,-3.21,-3.2115,-3.2134,-3.233,-3.2277,-3.2347,-3.2463,-3.2531,-3.2555,-3.2576,-3.2645,-3.2671,-3.2362,-3.2362,-3.2362,0,-3.1922,-3.201,-3.1963,-3.2036,-3.206,-3.1979,-3.207,-3.2084,-3.2114,-3.2132,-3.2079,-3.2187,-3.2193,-3.2311,-3.2359,-3.2378,-3.2401,-3.2345,-3.2555,-3.2576,-3.2594,-3.266,-3.2686,-3.237,-3.2369,-3.2368,-3.2368,0,-3.2142,-3.2204,-3.2275,-3.2305,-3.2336,-3.2418,-3.2384,-3.2421,-3.2385,-3.2371,-3.2465,-3.2469,-3.2513,-3.2539,-3.2505,-3.2652,-3.2623,-3.2564,-3.247,-3.2632,-3.2693,-3.2718,-3.2382,-3.2379,-3.2377,-3.2375,0,0,-3.2417,-3.2418,-3.2445,-3.2457,-3.2468,-3.2515,-3.2593,-3.2635,-3.2668,-3.2692,-3.2756,-3.2831,-3.2776,-3.2798,-3.2765,-3.2825,-3.2979,-3.2758,-3.2758,-3.2799,-3.3141,-3.3185,-3.3215,-3.2944,-3.2949,-3.2952,-3.3139,0,-3.2605,-3.2737,-3.2696,-3.283,-3.2886,-3.281,-3.2878,-3.2892,-3.288,-3.2927,-3.2914,-3.2968,-3.2891,-3.2904,-3.296,-3.2949,-3.3047,-3.2935,-3.3003,-3.3006,-3.3001,-3.3247,-3.3294,-3.347,-3.3163,-3.3167,-3.317,0,-3.2841,-3.2873,-3.3012,-3.3012,-3.3034,-3.3096,-3.313,-3.3176,-3.319,-3.3177,-3.3201,-3.3155,-3.3232,-3.3138,-3.3243,-3.3167,-3.3193,-3.3192,-3.3197,-3.3202,-3.3098,-3.3258,-3.3525,-3.3552,-3.3207,-3.3204,-3.3201,0,-3.3027,-3.3104,-3.3196,-3.3209,-3.3212,-3.3257,-3.326,-3.3269,-3.3297,-3.3328,-3.3345,-3.3385,-3.3407,-3.3439,-3.3405,-3.334,-3.3515,-3.3418,-3.3506,-3.3507,-3.3546,-3.3544,-3.3822,-3.3564,-3.3564,-3.3563,-3.3563,0,-3.3241,-3.3329,-3.3279,-3.3337,-3.3433,-3.3385,-3.3482,-3.3477,-3.3485,-3.354,-3.3477,-3.353,-3.3482,-3.3531,-3.3506,-3.3596,-3.3606,-3.3598,-3.359,-3.3604,-3.3605,-3.3619,-3.3606,-3.357,-3.3569,-3.3567,-3.3566,0,-3.3464,-3.3435,-3.353,-3.3525,-3.3525,-3.3596,-3.3591,-3.3644,-3.3627,-3.3697,-3.3711,-3.3685,-3.3739,-3.3708,-3.3765,-3.3747,-3.3864,-3.384,-3.3859,-3.3852,-3.3942,-3.3934,-3.4238,-3.4275,-3.3994,-3.3997,-3.3999,0,-3.3602,-3.3667,-3.3668,-3.37,-3.3707,-3.3759,-3.3786,-3.3742,-3.3773,-3.3794,-3.3845,-3.3893,-3.3929,-3.4019,-3.4006,-3.4048,-3.4024,-3.4127,-3.403,-3.4041,-3.4024,-3.4021,-3.4027,-3.4147,-3.415,-3.4153,-3.4155,0,-3.385,-3.3832,-3.3873,-3.391,-3.3944,-3.3971,-3.3993,-3.4023,-3.3978,-3.4017,-3.407,-3.4099,-3.4155,-3.4204,-3.4239,-3.4243,-3.4193,-3.4186,-3.4208,-3.4223,-3.4231,-3.4227,-3.3912,-3.4179,-3.4177,-3.4175,-3.4174,-3.4173,-3.4034,-3.4088,-3.4097,-3.4145,-3.4156,-3.4178,-3.4227,-3.4215,-3.4259,-3.4301,-3.4272,-3.4336,-3.4348,-3.439,-3.44,-3.445,-3.4408,-3.4441,-3.4449,-3.4458,-3.4469,-3.4223,-3.4456,-3.4455,-3.4455,-3.4454,-3.4454,0,-3.4278,-3.4279,-3.4324,-3.4356,-3.4394,-3.4341,-3.4362,-3.4398,-3.4454,-3.4469,-3.4506,-3.4567,-3.4614,-3.4604,-3.4646,-3.4687,-3.4665,-3.47,-3.4696,-3.4698,-3.4505,-3.4481,-3.4717,-3.4717,-3.4717,-3.4717,-3.4717,-3.4717,-3.4409,-3.4498,-3.4481,-3.4574,-3.4575,-3.4636,-3.4653,-3.4672,-3.4684,-3.4755,-3.4793,-3.4786,-3.479,-3.4832,-3.4873,-3.4869,-3.4887,-3.493,-3.4918,-3.4738,-3.4712,-3.4687,-3.4664,-3.4935,-3.4935,-3.5106,-3.5108,-3.5109]},{"header":{"parameterUnit":"m.s-1","parameterCategory":1,"la1":30.2991,"la2":30.254,"lo1":-89.0895,"lo2":-89.0444,"dy":0.0017,"dx":0.0017,"nx":28,"ny":28,"refTime":"2025-01-02T09:00:00:Z","depth":0,"parameterNumber":3,"parameterNumberName":"V-component_of_WINDS"},"data":[0,0,0,0,0,0,0,0,0,0,0,0,0,0,0,0,0,0,0,0,0,0,0,0,0,0,0,0,0,0,0,0,0,0,0,0,0,0,0,0,0,0,0,0,0,0,0,0,0,0,0,0,0,0,0,0,0,0,0.9973,0.9973,0,0.9958,0.9957,0.9957,0.9968,0.9969,0.9969,0.997,0.9949,0.9948,0.9947,0,0,0,0,0,0,0,0,0,0,0,0,0,1.001,1.0009,0.9973,0.9973,0.9973,0.9958,0.9957,0.9957,0.9968,0.9969,0.9969,0.997,0.995,0.9948,0.9947,0,0,0,0,0,0,0,0,0,0,0,0,0,0.9994,1.0009,0.9973,0.9977,0.9977,0.9958,0.9957,0.9957,0.9968,0.9969,0.9969,0.997,0.995,0.9949,0.9947,0.9923,0,0,0.9942,0.9942,0,0,0,0,0,0,0,0,0.9995,0.9992,0.9976,0.9976,0.9976,0.9966,0.9963,0.9945,0.9968,0.9971,0.997,0.9971,0.9954,0.9952,0.9947,0.9922,0.9921,0.9942,0.9941,0.9941,0.994,0,0,0,0,0,0,0,0.9996,0.9993,0.9967,0.9976,0.9976,0.9978,0.9976,0.996,0.9958,0.9971,0.9972,0.997,0.9954,0.9949,0.9947,0.9921,0.9942,0.9941,0.994,0.994,0.9875,0.9874,0,0,0,0,0,0,0.9997,0.9994,0.9967,0.9967,0.9988,0.9977,0.9975,0.9968,0.9959,0.9958,0.9969,0.997,0.9951,0.9949,0.9946,0.9917,0.9941,0.9939,0.9939,0.9876,0.9875,0.9874,0,0,0,0,0,0,0.9998,0.9995,0.9968,0.9981,0.9977,0.9975,0.9968,0.9968,0.9962,0.9957,0.9957,0.9964,0.9952,0.9948,0.9929,0.9917,0.9939,0.9937,0.9877,0.9875,0.9874,0.9859,0,0,0,0,0,0,0.9999,0.9995,0.9986,0.998,0.9977,0.9952,0.9967,0.9967,0.996,0.9962,0.9953,0.9952,0.9952,0.9931,0.9927,0.9915,0.9936,0.9878,0.9876,0.9875,0.9861,0.9857,0.9855,0,0,0,0,0,1.0,0.9981,0.9986,0.9982,0.9966,0.9951,0.9949,0.9951,0.9959,0.995,0.9947,0.9952,0.9919,0.9929,0.9925,0.9912,0.9878,0.9876,0.9875,0.9862,0.9858,0.9855,0,0,0,0,0,0,0.9984,0.9981,0.9985,0.9964,0.9958,0.9953,0.9941,0.9946,0.9936,0.9938,0.9939,0.9937,0.9917,0.9912,0.9924,0.9888,0.99,0.9897,0.9892,0.9888,0.9885,0.9886,0.9935,0,0,0,0,0,0.9978,0.9968,0.9965,0.9947,0.9944,0.9943,0.9937,0.9939,0.9932,0.9929,0.9924,0.9916,0.9904,0.9896,0.9884,0.9861,0.9858,0.985,0.9847,0.9844,0.9842,0.9829,0.9825,0.9868,0.9868,0.9868,0,0,0.9966,0.9963,0.9956,0.9944,0.9939,0.9927,0.9941,0.9927,0.9918,0.9926,0.9908,0.9905,0.9896,0.9874,0.9864,0.987,0.983,0.9842,0.984,0.9839,0.9827,0.9822,0.9819,0.9866,0.9867,0.9867,0,0,0.9937,0.9934,0.9919,0.9914,0.9908,0.9908,0.9905,0.9899,0.9898,0.988,0.9886,0.9874,0.9854,0.9847,0.9841,0.9812,0.9816,0.9808,0.9792,0.978,0.9776,0.9773,0.9763,0.9759,0.9806,0.9805,0.9805,0,0.9922,0.9905,0.991,0.9897,0.9891,0.99,0.9884,0.9879,0.9869,0.9864,0.9871,0.9846,0.984,0.9818,0.9811,0.9806,0.9801,0.9808,0.9777,0.9774,0.9771,0.9761,0.9757,0.9805,0.9805,0.9805,0.9805,0,0.9887,0.9875,0.9864,0.9855,0.9849,0.9834,0.9836,0.9828,0.9831,0.983,0.9812,0.9806,0.9794,0.9789,0.9791,0.9766,0.977,0.9777,0.9789,0.9766,0.9756,0.9752,0.9803,0.9804,0.9804,0.9804,0,0,0.9846,0.9842,0.9837,0.9834,0.9828,0.9819,0.9805,0.9795,0.9788,0.9781,0.9769,0.9752,0.9758,0.9752,0.9753,0.9743,0.972,0.9751,0.975,0.9745,0.9692,0.9686,0.9682,0.9723,0.9722,0.9722,0.9693,0,0.9817,0.9793,0.9798,0.9775,0.9764,0.9773,0.9761,0.9755,0.9755,0.9745,0.9743,0.9731,0.9741,0.9737,0.9727,0.9725,0.9709,0.9727,0.971,0.971,0.9712,0.9677,0.9671,0.9643,0.9689,0.9688,0.9688,0,0.9779,0.9772,0.9749,0.9746,0.9742,0.9731,0.9722,0.9713,0.9707,0.9707,0.9701,0.9705,0.969,0.9703,0.9682,0.9694,0.9688,0.9686,0.9685,0.9682,0.9697,0.9673,0.9635,0.963,0.9682,0.9682,0.9683,0,0.9751,0.9736,0.972,0.9717,0.9713,0.9706,0.9703,0.9699,0.9693,0.9685,0.9681,0.9671,0.9665,0.9657,0.9658,0.9667,0.9637,0.965,0.9635,0.9635,0.9627,0.9628,0.9587,0.9625,0.9625,0.9625,0.9625,0,0.9717,0.9702,0.9708,0.9698,0.9682,0.9687,0.967,0.9669,0.9665,0.9654,0.9661,0.9651,0.9653,0.9643,0.9643,0.9626,0.9623,0.9622,0.9623,0.9621,0.9621,0.9616,0.9618,0.9624,0.9624,0.9624,0.9625,0,0.9683,0.9686,0.9669,0.9668,0.9667,0.9655,0.9653,0.9644,0.9644,0.9631,0.9628,0.9628,0.9617,0.9617,0.9603,0.9604,0.9582,0.9585,0.9585,0.9585,0.9571,0.9572,0.9525,0.9518,0.9561,0.956,0.956,0,0.9661,0.965,0.9648,0.9642,0.964,0.963,0.9625,0.9629,0.9623,0.9617,0.9608,0.9597,0.9588,0.9569,0.9567,0.9557,0.9559,0.9543,0.9557,0.9556,0.9558,0.9558,0.9557,0.954,0.9539,0.9539,0.9539,0,0.9621,0.9624,0.9616,0.9609,0.9603,0.9597,0.9592,0.9587,0.9591,0.9583,0.9572,0.9566,0.9553,0.9542,0.9532,0.9529,0.9534,0.9535,0.9531,0.9529,0.9529,0.9528,0.9576,0.9535,0.9536,0.9536,0.9536,0.9536,0.9592,0.9583,0.958,0.9572,0.9569,0.9564,0.9556,0.9556,0.9547,0.9538,0.9541,0.9529,0.9524,0.9512,0.9508,0.9497,0.9503,0.9497,0.9495,0.9494,0.9492,0.9532,0.9495,0.9496,0.9496,0.9496,0.9496,0,0.9552,0.9552,0.9544,0.9537,0.9531,0.9538,0.9533,0.9527,0.9516,0.9512,0.9504,0.9492,0.9481,0.948,0.947,0.9462,0.9464,0.9459,0.9459,0.9458,0.9488,0.9492,0.9457,0.9457,0.9457,0.9457,0.9457,0.9457,0.9531,0.9516,0.9518,0.9502,0.9501,0.949,0.9487,0.9483,0.9479,0.9466,0.9458,0.9457,0.9454,0.9444,0.9435,0.9435,0.943,0.9424,0.9424,0.9452,0.9456,0.9459,0.9463,0.9423,0.9423,0.9395,0.9395,0.9395]}]]